Terug naar catalogus

FENGYUN 1C DEB

ActiefSSO
NORAD 30120·DEBRIS·🇨🇳 China

Gelanceerd May 10, 1999 vanaf Taiyuan Satellite Launch Center

Loading…

Volgende Passages (komende 24 uur)

TLE

VersSource: Space-Track

Epoch: Sep 13, 2026, 11:36 UTC

1 30120U 99025RZ  26256.48392655  .00002578  00000-0  10045-2 0  9998
2 30120  98.8439 347.2024 0062391 132.8489 289.2182 14.29533759 12910

Volg FENGYUN 1C DEB in realtime met AllMySat

Download on the App Store